Wind_Speed
21 19 20 20 19 19 20 20 22 22 23 22 21 21 23 24 24 24 22 22 22 21 21 21 21 20 21 21 20 20 20 20 20 20 21 21 22 21 21 21 21 21 22 22
23 22 23 23 22 21 22 22 23 23 25 25 25 24 24 25 25 25 24 23 22 22 22 22 22 22 23 23 22 21 21 21 22 22 22 23 23 22 22 22 22 23 23 24
25 23 25 25 24 24 24 24 24 26 26 26 27 26 25 26 25 24 24 24 23 23 24 24 23 24 24 23 23 23 22 23 23 23 23 23 23 23 23 23 22 23 24 25
25 25 27 25 23 23 25 24 25 27 26 27 28 28 27 27 26 25 24 24 24 24 24 24 24 24 24 24 24 24 24 24 24 24 24 24 24 24 24 24 24 25 25 26
23 24 25 24 24 23 24 25 25 26 27 28 27 27 27 26 26 25 25 25 24 24 24 24 24 25 25 24 25 25 25 26 26 26 26 26 25 26 26 26 26 26 27 27
24 25 25 24 23 22 24 27 27 27 26 26 27 27 26 25 26 25 26 26 25 25 25 25 25 25 25 25 25 26 26 27 27 27 27 27 27 27 27 27 27 28 29 29
24 24 25 25 24 24 26 27 26 26 26 26 26 27 27 26 26 26 26 26 25 25 25 26 26 26 26 26 25 26 26 26 26 27 27 27 27 27 27 27 28 29 30 30
23 24 24 25 25 26 27 26 25 26 26 26 26 27 27 26 26 26 26 26 25 26 26 27 26 26 27 26 26 26 26 26 26 27 27 27 26 27 28 29 29 29 30 30
24 25 26 27 28 27 28 27 26 26 26 26 26 27 28 27 27 26 26 27 27 27 26 26 26 27 27 27 27 26 26 26 26 26 26 25 26 27 28 28 29 29 29 30
25 25 26 26 27 28 28 29 29 28 28 27 28 28 28 28 27 27 27 27 28 26 26 26 26 26 27 27 27 26 25 25 25 25 25 26 27 27 27 28 28 28 28 29
27 28 28 27 28 28 28 29 28 28 28 28 29 29 28 28 27 27 28 27 27 27 28 27 26 26 26 26 26 25 24 24 25 26 26 26 27 27 27 28 29 28 28 28
26 26 26 27 26 27 28 28 28 28 28 29 29 29 28 27 27 27 27 27 27 28 27 26 26 25 25 25 25 25 25 25 26 26 26 26 26 27 27 28 28 28 28 29
26 25 26 26 26 26 27 28 28 28 28 28 28 28 27 27 28 28 28 28 28 28 27 27 27 27 26 26 26 26 26 26 26 26 27 26 27 27 27 28 28 28 28 29
26 25 25 25 24 24 25 26 27 27 27 27 27 27 27 27 27 28 28 28 28 28 28 27 27 27 27 27 26 26 26 26 26 27 27 27 27 27 27 27 28 28 28 28
25 25 24 23 23 24 24 25 26 27 26 26 26 26 26 27 27 27 28 28 28 27 27 27 27 27 26 26 26 26 26 26 26 26 27 26 26 27 27 27 28 28 27 28
24 25 24 22 23 23 24 24 25 25 25 25 25 25 26 26 26 26 27 27 27 27 27 27 27 26 26 26 26 26 26 25 24 25 26 25 25 26 26 27 28 27 27 28
23 23 23 23 24 24 24 24 24 24 24 24 24 24 24 25 26 26 27 27 27 27 27 27 27 27 26 26 25 25 24 24 24 25 26 26 26 27 27 28 28 28 29 30
22 22 22 23 24 24 24 23 24 24 23 23 23 24 24 24 25 26 27 27 27 27 26 26 27 27 26 25 24 24 24 25 26 26 27 27 27 27 28 28 29 29 29 30
22 23 23 23 23 23 23 23 23 24 24 23 23 24 25 25 25 26 27 26 26 25 25 25 25 25 25 24 24 24 25 26 26 26 26 27 27 27 28 28 28 29 29 30
22 22 23 23 23 23 23 23 23 23 24 24 24 24 25 25 25 25 26 26 25 24 24 23 23 23 23 23 24 25 25 25 25 25 26 27 27 27 28 28 28 28 28 29
22 22 23 23 23 23 23 23 23 23 23 24 24 24 25 25 25 25 25 25 25 23 23 23 23 22 23 23 24 24 24 24 24 26 26 27 27 27 27 28 28 28 28 30
22 22 22 22 22 22 22 23 23 23 24 24 24 25 25 24 24 24 24 24 23 23 23 23 22 22 22 23 23 23 24 24 25 26 27 27 27 27 27 27 27 28 29 30
22 21 21 22 22 22 22 22 22 23 23 23 23 24 24 23 23 23 23 23 23 22 23 23 22 22 23 23 22 22 22 22 24 25 26 26 26 26 26 27 28 29 30 30
21 21 21 21 22 22 22 22 22 23 23 22 22 22 22 22 22 23 22 22 22 22 22 21 21 21 22 22 22 22 22 23 23 24 25 25 25 25 26 27 28 29 30 30
19 19 20 20 21 20 20 21 20 21 21 22 22 21 21 21 21 21 22 21 21 21 21 20 20 21 22 22 23 23 23 23 24 24 24 24 25 26 27 27 29 30 30 30
18 19 19 19 19 19 19 20 20 20 20 20 20 21 21 21 21 21 21 21 21 20 20 21 21 22 22 22 22 23 23 23 24 25 25 25 26 27 28 29 29 29 30 30
18 18 18 18 19 19 19 19 19 19 19 19 19 20 20 21 21 21 21 21 21 20 20 21 22 22 22 21 21 22 23 24 24 24 25 26 27 28 29 29 29 29 29 29
Wind_Direction
236 238 245 252 254 254 254 252 254 258 260 263 265 268 272 275 276 277 280 281 282 283 284 285 285 288 290 289 289 287 283 282 283 284 285 286 287 286 284 283 285 285 287 289
241 241 245 250 252 255 256 256 259 259 260 260 265 265 269 274 276 279 282 282 282 282 282 283 286 286 288 286 286 286 282 281 282 283 284 285 284 282 284 284 287 288 288 288
247 248 251 251 252 253 255 256 257 257 260 265 267 268 270 274 279 281 282 282 282 283 284 282 282 284 285 285 284 285 284 283 283 283 283 282 281 281 282 284 286 288 289 288
250 251 253 255 254 258 260 260 260 260 263 267 267 269 270 274 277 280 281 282 282 282 283 282 282 283 283 283 284 284 284 284 282 282 283 282 280 280 283 283 285 288 290 289
250 253 259 258 256 255 256 258 258 261 264 268 266 268 270 272 277 279 281 281 282 284 285 284 283 283 282 282 282 284 284 283 282 282 283 282 281 280 281 281 282 286 289 289
251 253 257 259 259 261 261 258 259 263 266 267 268 268 271 273 276 278 280 280 280 281 282 281 281 282 281 282 283 285 285 283 281 280 282 282 282 282 282 282 283 285 288 288
252 253 255 255 257 261 262 262 264 263 265 268 270 271 272 274 277 278 278 278 278 279 280 279 279 280 281 282 284 285 284 282 283 282 282 282 282 282 283 284 285 286 287 288
252 252 254 258 259 259 261 261 262 263 265 268 269 271 273 274 276 277 277 277 278 279 279 279 279 280 280 281 282 283 284 284 284 283 281 280 281 282 283 285 286 286 287 288
253 249 252 256 259 259 260 260 261 264 267 269 271 271 273 274 275 277 276 276 277 278 279 279 279 279 279 278 279 280 282 282 283 283 282 281 282 283 285 286 288 288 288 288
257 257 255 258 261 260 259 261 264 266 269 273 272 272 273 273 275 276 276 277 276 277 278 278 279 279 278 278 278 279 281 282 283 284 284 284 285 286 287 287 287 287 288 290
254 256 258 261 262 264 263 261 266 269 271 272 273 273 273 272 272 274 275 276 276 277 277 276 275 277 278 279 280 280 281 283 285 285 285 286 287 288 289 289 289 289 290 290
258 258 259 260 261 263 266 265 266 269 271 273 273 272 273 273 274 273 273 274 275 276 276 275 277 279 280 281 280 281 282 283 284 286 286 286 288 289 289 291 291 291 292 292
259 260 260 262 263 264 266 268 269 270 272 274 273 272 273 274 273 274 275 275 276 277 278 277 277 280 281 282 282 282 282 283 283 284 286 286 287 289 290 291 292 292 292 292
259 259 261 262 265 266 267 268 269 270 272 273 273 275 276 276 276 275 276 277 278 279 280 279 279 280 281 281 282 281 281 281 282 284 286 288 289 290 290 291 291 291 292 293
260 260 261 262 265 266 268 269 268 269 272 273 275 276 275 276 277 277 278 279 280 281 281 281 281 281 281 280 281 281 281 281 283 285 287 289 290 291 291 291 290 290 291 293
260 259 261 262 264 265 269 270 270 269 271 273 275 275 276 276 277 278 279 281 281 281 281 281 281 280 278 279 279 280 282 283 284 285 288 290 292 293 292 291 291 291 292 294
261 259 260 262 265 266 269 270 270 270 271 273 275 275 276 277 278 279 281 282 281 281 280 280 280 278 277 277 277 278 280 282 284 285 288 291 291 291 291 292 293 292 293 295
261 261 264 268 269 269 271 272 272 272 273 275 276 277 277 278 279 279 280 282 282 281 279 279 279 276 273 272 275 277 279 282 284 287 289 290 291 293 295 294 294 294 295 296
263 264 266 269 270 271 272 272 273 274 275 275 276 277 278 279 280 280 280 282 283 282 282 279 277 275 273 272 274 278 280 282 284 286 288 290 292 293 295 297 298 298 299 301
263 264 266 268 269 271 273 274 274 276 276 276 278 279 280 279 279 280 281 282 283 282 280 279 278 277 276 276 278 280 282 282 283 286 288 291 293 294 296 298 298 300 301 302
262 263 265 268 267 269 271 273 274 276 277 277 277 278 279 280 280 280 280 281 280 279 279 278 278 277 277 278 279 281 282 282 283 286 288 290 292 293 296 299 301 302 303 304
262 263 265 267 268 269 270 272 273 274 275 276 277 279 280 281 281 282 282 283 281 279 279 278 277 276 277 278 279 280 281 284 286 288 288 290 292 295 298 300 301 302 303 304
263 264 265 266 268 270 271 271 272 273 275 276 278 280 280 281 283 285 285 284 283 282 282 281 279 278 278 278 278 280 281 283 286 289 291 292 294 297 298 300 301 302 302 303
264 265 266 267 269 270 271 272 273 274 274 275 278 280 279 280 284 287 286 285 285 285 284 281 279 279 279 279 280 281 283 284 286 289 292 295 297 299 301 302 303 303 303 302
263 264 266 269 270 271 271 272 274 275 275 276 279 279 278 280 282 283 286 286 286 286 285 283 282 280 280 281 282 282 283 285 287 290 293 295 298 300 302 304 304 304 304 304
266 268 270 271 272 272 272 274 276 278 279 279 278 278 279 281 281 281 283 285 285 284 284 285 285 284 283 283 283 283 283 286 289 291 294 297 300 302 303 304 304 305 306 307
267 267 268 271 273 275 276 278 280 280 280 281 282 281 281 281 282 282 284 284 284 283 284 285 286 287 285 284 283 283 284 287 290 293 296 299 301 302 303 304 305 307 308 308
Height
5873 5875 5876 5876 5877 5878 5879 5880 5881 5880 5879 5878 5877 5877 5877 5876 5875 5875 5875 5873 5873 5873 5871 5870 5870 5869 5868 5867 5867 5866 5865 5865 5865 5865 5864 5863 5863 5862 5862 5861 5861 5860 5860 5859
5867 5869 5870 5870 5872 5873 5874 5874 5874 5874 5873 5872 5872 5871 5871 5870 5869 5870 5869 5868 5868 5867 5866 5866 5865 5864 5863 5862 5862 5861 5860 5860 5860 5860 5859 5858 5857 5857 5856 5856 5855 5854 5854 5853
5861 5863 5863 5864 5866 5867 5867 5867 5868 5866 5867 5865 5866 5865 5864 5864 5864 5864 5863 5863 5862 5862 5861 5861 5859 5858 5858 5857 5856 5855 5855 5854 5854 5854 5853 5852 5851 5850 5850 5850 5849 5848 5848 5847
5854 5856 5856 5860 5860 5860 5860 5860 5860 5859 5859 5858 5859 5859 5858 5858 5858 5858 5857 5857 5857 5856 5855 5855 5854 5853 5853 5852 5851 5850 5849 5849 5848 5848 5847 5846 5845 5845 5844 5843 5842 5841 5840 5839
5848 5849 5850 5853 5852 5853 5853 5853 5853 5853 5852 5852 5852 5851 5852 5852 5852 5852 5851 5851 5850 5850 5849 5848 5848 5847 5847 5846 5845 5844 5843 5843 5842 5841 5840 5839 5838 5838 5837 5836 5835 5834 5833 5831
5841 5843 5844 5846 5846 5845 5846 5845 5846 5845 5844 5845 5845 5845 5845 5845 5846 5845 5845 5844 5844 5844 5843 5842 5842 5841 5840 5840 5839 5838 5837 5836 5835 5834 5833 5833 5831 5831 5830 5829 5828 5827 5826 5824
5834 5835 5837 5838 5838 5839 5840 5840 5839 5838 5838 5838 5838 5839 5839 5839 5839 5838 5838 5838 5837 5837 5837 5836 5835 5834 5834 5833 5832 5831 5829 5829 5827 5826 5826 5825 5824 5823 5822 5821 5820 5819 5817 5816
5828 5830 5832 5831 5831 5832 5832 5832 5831 5831 5831 5832 5832 5832 5832 5833 5833 5832 5832 5831 5831 5831 5830 5829 5828 5827 5827 5826 5824 5823 5822 5821 5820 5819 5818 5817 5817 5816 5814 5813 5812 5810 5809 5807
5821 5823 5823 5823 5824 5824 5824 5824 5824 5824 5825 5826 5826 5826 5826 5826 5826 5825 5825 5824 5824 5823 5823 5822 5821 5820 5819 5818 5817 5816 5815 5814 5812 5811 5810 5809 5809 5808 5806 5805 5803 5802 5800 5799
5813 5814 5816 5817 5817 5817 5817 5817 5818 5818 5818 5818 5818 5818 5818 5819 5818 5818 5818 5817 5815 5814 5815 5815 5814 5813 5812 5810 5810 5809 5808 5807 5805 5804 5803 5802 5801 5799 5798 5796 5795 5793 5792 5790
5807 5809 5810 5810 5810 5810 5810 5811 5811 5811 5811 5811 5811 5811 5811 5811 5811 5811 5810 5810 5808 5808 5808 5808 5807 5805 5804 5803 5802 5801 5800 5799 5798 5797 5795 5794 5792 5791 5790 5788 5787 5785 5784 5782
5800 5802 5803 5803 5804 5804 5804 5804 5804 5804 5804 5804 5804 5804 5803 5803 5803 5803 5803 5802 5802 5801 5801 5800 5799 5797 5796 5795 5794 5793 5793 5792 5791 5789 5788 5786 5785 5784 5782 5781 5779 5777 5775 5774
5794 5795 5795 5796 5797 5797 5797 5797 5797 5797 5797 5796 5796 5796 5796 5796 5795 5795 5794 5794 5793 5793 5792 5792 5791 5790 5789 5788 5787 5786 5785 5784 5783 5782 5780 5779 5777 5776 5774 5773 5771 5769 5767 5766
5788 5789 5789 5789 5790 5790 5790 5790 5790 5790 5789 5789 5789 5788 5788 5787 5787 5787 5786 5786 5785 5784 5784 5784 5783 5783 5782 5781 5780 5779 5778 5777 5775 5774 5772 5771 5769 5768 5766 5764 5762 5761 5759 5757
5782 5782 5783 5783 5784 5784 5784 5784 5783 5783 5782 5782 5781 5781 5780 5779 5779 5779 5779 5778 5777 5776 5776 5776 5775 5775 5774 5773 5773 5771 5770 5769 5768 5767 5765 5763 5762 5760 5758 5756 5754 5753 5751 5749
5775 5775 5776 5777 5778 5778 5778 5777 5776 5775 5775 5775 5774 5774 5773 5772 5772 5772 5771 5770 5770 5769 5768 5768 5768 5767 5766 5766 5765 5764 5763 5762 5761 5759 5758 5756 5754 5752 5750 5748 5746 5745 5743 5742
5768 5769 5770 5771 5771 5771 5771 5770 5769 5769 5768 5768 5767 5766 5766 5765 5765 5765 5764 5763 5762 5762 5761 5760 5760 5759 5758 5758 5757 5756 5756 5755 5754 5752 5750 5748 5747 5745 5743 5740 5738 5737 5735 5733
5762 5763 5764 5764 5764 5764 5764 5763 5763 5762 5762 5761 5761 5760 5759 5759 5758 5757 5757 5756 5755 5754 5753 5752 5752 5751 5750 5750 5750 5749 5748 5747 5746 5745 5743 5742 5740 5737 5734 5732 5730 5728 5726 5725
5756 5757 5757 5758 5757 5757 5757 5756 5756 5756 5755 5755 5754 5753 5752 5752 5751 5750 5749 5748 5747 5746 5746 5745 5744 5744 5743 5743 5743 5742 5741 5740 5739 5737 5736 5734 5732 5730 5727 5724 5722 5720 5718 5716
5751 5751 5751 5751 5751 5751 5751 5750 5750 5749 5749 5748 5747 5747 5746 5745 5744 5743 5741 5741 5740 5739 5738 5738 5737 5737 5736 5736 5735 5735 5734 5732 5731 5730 5729 5727 5725 5723 5720 5718 5715 5713 5711 5708
5745 5745 5745 5745 5745 5745 5745 5744 5744 5743 5742 5742 5741 5741 5739 5738 5737 5736 5735 5734 5733 5732 5731 5731 5730 5730 5729 5729 5728 5727 5726 5725 5724 5723 5722 5720 5718 5715 5713 5711 5708 5706 5703 5700
5739 5739 5739 5739 5739 5739 5738 5738 5738 5737 5736 5735 5735 5734 5733 5731 5730 5729 5728 5727 5726 5725 5725 5724 5724 5723 5722 5722 5721 5720 5719 5718 5717 5716 5714 5712 5710 5708 5706 5704 5701 5698 5696 5693
5733 5733 5733 5733 5732 5732 5732 5731 5731 5730 5730 5729 5728 5727 5726 5725 5724 5723 5722 5721 5720 5719 5719 5718 5717 5717 5716 5716 5715 5714 5713 5712 5711 5709 5707 5705 5703 5701 5699 5696 5694 5691 5688 5685
5727 5727 5727 5726 5726 5726 5725 5725 5724 5723 5723 5722 5721 5720 5719 5718 5717 5717 5716 5715 5714 5713 5713 5712 5711 5711 5710 5709 5709 5708 5706 5705 5704 5702 5701 5699 5696 5694 5691 5689 5686 5683 5680 5676
5721 5721 5720 5720 5720 5719 5719 5718 5718 5717 5716 5716 5715 5714 5713 5713 5712 5711 5710 5709 5708 5707 5707 5706 5705 5704 5704 5703 5702 5701 5700 5699 5697 5696 5694 5692 5689 5687 5684 5681 5678 5674 5671 5668
5715 5715 5715 5714 5714 5713 5713 5713 5712 5711 5710 5710 5709 5708 5708 5707 5706 5705 5704 5703 5702 5702 5701 5701 5700 5698 5698 5697 5695 5695 5694 5693 5691 5689 5687 5684 5682 5679 5676 5673 5670 5666 5662 5659
5710 5709 5709 5709 5709 5708 5708 5707 5707 5706 5705 5704 5703 5703 5702 5701 5700 5700 5698 5697 5697 5696 5695 5695 5693 5692 5691 5690 5689 5688 5687 5686 5684 5682 5679 5677 5674 5671 5668 5665 5661 5658 5654 5650